�������l�o���
Date,Time,MP-1(��Sv/h),MP-2(��Sv/h),MP-3(��Sv/h),MP-4(��Sv/h),MP-5(��Sv/h),MP-6(��Sv/h),MP-7(��Sv/h),MP-8(��Sv/h),����,����(m/s),���J
2023/05/07,00:00,0.571,0.829,0.503,1.052,0.737,0.331,0.582,0.547,�k�k��,4.6,�L
2023/05/07,00:10,0.570,0.827,0.503,1.051,0.739,0.329,0.582,0.547,�k�k��,4.3,�L
2023/05/07,00:20,0.571,0.829,0.502,1.052,0.736,0.329,0.584,0.546,�k�k��,4.8,�L
2023/05/07,00:30,0.569,0.829,0.502,1.050,0.736,0.329,0.585,0.546,�k�k��,4.6,�L
2023/05/07,00:40,0.566,0.829,0.501,1.051,0.734,0.330,0.584,0.547,�k�k��,4.7,�L
2023/05/07,00:50,0.570,0.827,0.502,1.052,0.736,0.330,0.583,0.547,�k��,4.4,�L
2023/05/07,01:00,0.570,0.828,0.501,1.053,0.734,0.330,0.582,0.548,�k�k��,4.6,�L
2023/05/07,01:10,0.568,0.826,0.501,1.052,0.735,0.330,0.583,0.547,�k�k��,4.7,�L
2023/05/07,01:20,0.568,0.827,0.504,1.050,0.736,0.331,0.583,0.546,�k�k��,5.5,�L
2023/05/07,01:30,0.566,0.826,0.502,1.050,0.733,0.329,0.583,0.546,�k,6.2,�L
2023/05/07,01:40,0.564,0.826,0.500,1.047,0.731,0.328,0.582,0.545,�k�k��,8.6,�L
2023/05/07,01:50,0.565,0.824,0.499,1.048,0.731,0.328,0.581,0.547,�k�k��,8.1,�L
2023/05/07,02:00,0.563,0.820,0.500,1.047,0.730,0.328,0.581,0.545,�k,7.3,�L
2023/05/07,02:10,0.564,0.819,0.499,1.048,0.727,0.328,0.579,0.544,�k,8.4,�L
2023/05/07,02:20,0.564,0.818,0.499,1.046,0.726,0.328,0.580,0.546,�k,8.4,�L
2023/05/07,02:30,0.565,0.818,0.497,1.045,0.726,0.326,0.580,0.544,�k,7.0,�L
2023/05/07,02:40,0.563,0.817,0.498,1.044,0.724,0.326,0.578,0.544,�k,7.2,�L
2023/05/07,02:50,0.563,0.818,0.498,1.044,0.723,0.326,0.580,0.544,�k,6.4,�L
2023/05/07,03:00,0.563,0.816,0.498,1.042,0.724,0.328,0.579,0.543,�k�k��,8.5,�L
2023/05/07,03:10,0.563,0.813,0.495,1.045,0.723,0.327,0.578,0.543,�k,8.0,�L
2023/05/07,03:20,0.561,0.814,0.497,1.042,0.724,0.327,0.579,0.545,�k�k��,8.1,�L
2023/05/07,03:30,0.562,0.812,0.497,1.041,0.725,0.328,0.577,0.542,�k,7.4,�L
2023/05/07,03:40,0.562,0.813,0.497,1.041,0.723,0.328,0.576,0.545,�k�k��,6.7,�L
2023/05/07,03:50,0.560,0.814,0.496,1.039,0.723,0.330,0.576,0.544,�k,7.8,�L
2023/05/07,04:00,0.562,0.811,0.498,1.040,0.724,0.328,0.577,0.543,�k�k��,7.4,�L
2023/05/07,04:10,0.560,0.810,0.495,1.039,0.722,0.327,0.577,0.543,�k,7.1,�L
2023/05/07,04:20,0.561,0.810,0.495,1.037,0.722,0.327,0.577,0.545,�k,6.2,�L
2023/05/07,04:30,0.560,0.809,0.495,1.037,0.724,0.327,0.576,0.542,�k,6.6,�L
2023/05/07,04:40,0.560,0.808,0.495,1.036,0.722,0.327,0.576,0.543,�k,8.5,�L
2023/05/07,04:50,0.559,0.809,0.495,1.034,0.721,0.328,0.576,0.542,�k,8.5,�L
2023/05/07,05:00,0.561,0.808,0.495,1.031,0.719,0.329,0.573,0.544,�k,7.6,�L
2023/05/07,05:10,0.557,0.808,0.496,1.030,0.720,0.328,0.573,0.541,�k,6.8,�L
2023/05/07,05:20,0.556,0.805,0.495,1.026,0.719,0.330,0.572,0.541,�k�k��,7.1,�L
2023/05/07,05:30,0.559,0.806,0.495,1.025,0.718,0.330,0.573,0.541,�k,7.4,�L
2023/05/07,05:40,0.559,0.803,0.497,1.021,0.714,0.329,0.572,0.540,�k,7.4,�L
2023/05/07,05:50,0.559,0.805,0.496,1.019,0.715,0.328,0.572,0.541,�k,9.1,�L
2023/05/07,06:00,0.561,0.802,0.496,1.015,0.715,0.330,0.573,0.541,�k,8.1,�L
2023/05/07,06:10,0.558,0.803,0.496,1.016,0.713,0.330,0.571,0.539,�k,9.5,�L
2023/05/07,06:20,0.558,0.802,0.497,1.014,0.711,0.330,0.570,0.541,�k,8.7,�L
2023/05/07,06:30,0.557,0.805,0.495,1.010,0.710,0.330,0.570,0.539,�k,10.5,�L
2023/05/07,06:40,0.557,0.801,0.495,1.010,0.712,0.328,0.569,0.541,�k,7.9,�L
2023/05/07,06:50,0.555,0.804,0.492,1.009,0.711,0.326,0.570,0.541,�k,9.2,�L
2023/05/07,07:00,0.554,0.799,0.493,1.011,0.709,0.326,0.570,0.539,�k,7.6,�L
2023/05/07,07:10,0.553,0.800,0.490,1.008,0.709,0.325,0.569,0.540,�k,8.4,�L
2023/05/07,07:20,0.553,0.799,0.492,1.005,0.709,0.326,0.569,0.539,�k�k��,7.3,�L
2023/05/07,07:30,0.554,0.799,0.491,1.006,0.709,0.326,0.568,0.539,�k,6.9,�L
2023/05/07,07:40,0.552,0.798,0.493,1.003,0.708,0.326,0.569,0.539,�k,8.7,�L
2023/05/07,07:50,0.552,0.798,0.491,1.003,0.709,0.326,0.566,0.540,�k,7.5,�L
2023/05/07,08:00,0.550,0.796,0.489,1.002,0.706,0.325,0.566,0.537,�k,8.4,�L
2023/05/07,08:10,0.550,0.794,0.490,1.001,0.707,0.325,0.567,0.538,�k,8.3,�L
2023/05/07,08:20,0.550,0.796,0.490,1.001,0.706,0.324,0.566,0.540,�k,8.1,�L
2023/05/07,08:30,0.549,0.794,0.489,0.994,0.706,0.323,0.568,0.538,�k,8.4,�L
2023/05/07,08:40,0.548,0.793,0.488,0.997,0.704,0.324,0.565,0.538,�k�k��,8.3,�L
2023/05/07,08:50,0.547,0.793,0.488,0.996,0.704,0.322,0.564,0.539,�k,8.4,�L
2023/05/07,09:00,0.548,0.791,0.488,0.994,0.703,0.322,0.566,0.538,�k,8.2,�L
2023/05/07,09:10,0.547,0.791,0.487,0.996,0.702,0.321,0.566,0.537,�k,8.4,�L
2023/05/07,09:20,0.546,0.791,0.487,0.997,0.701,0.321,0.565,0.537,�k,8.4,�L
2023/05/07,09:30,0.545,0.790,0.485,0.993,0.700,0.320,0.565,0.538,�k,8.7,�L
2023/05/07,09:40,0.547,0.790,0.486,0.992,0.702,0.322,0.565,0.538,�k,8.3,�L
2023/05/07,09:50,0.546,0.789,0.486,0.992,0.701,0.321,0.564,0.537,�k,8.5,�L
2023/05/07,10:00,0.545,0.790,0.486,0.992,0.699,0.322,0.563,0.539,�k,8.8,�L
2023/05/07,10:10,0.546,0.790,0.485,0.988,0.697,0.322,0.564,0.537,�k,8.3,�L
2023/05/07,10:20,0.545,0.789,0.486,0.989,0.697,0.322,0.563,0.538,�k,8.8,�L
2023/05/07,10:30,0.544,0.789,0.485,0.991,0.697,0.320,0.562,0.537,�k�k��,7.6,�L
2023/05/07,10:40,0.544,0.789,0.485,0.990,0.699,0.322,0.563,0.537,�k�k��,8.9,�L
2023/05/07,10:50,0.543,0.788,0.486,0.989,0.698,0.322,0.563,0.537,�k�k��,9.0,�L
2023/05/07,11:00,0.544,0.788,0.486,0.988,0.698,0.322,0.563,0.539,�k�k��,8.1,�L
2023/05/07,11:10,0.542,0.788,0.485,0.989,0.698,0.321,0.563,0.538,�k,8.4,�L
2023/05/07,11:20,0.543,0.789,0.484,0.987,0.698,0.321,0.564,0.536,�k�k��,8.3,�L
2023/05/07,11:30,0.544,0.788,0.485,0.987,0.699,0.322,0.564,0.535,�k,7.3,�L
2023/05/07,11:40,0.542,0.787,0.483,0.988,0.699,0.320,0.564,0.536,�k�k��,7.4,�L
2023/05/07,11:50,0.543,0.787,0.486,0.986,0.696,0.320,0.562,0.537,�k�k��,6.8,�L
2023/05/07,12:00,0.542,0.786,0.484,0.985,0.699,0.323,0.563,0.536,�k�k��,7.3,�L
2023/05/07,12:10,0.545,0.787,0.484,0.986,0.697,0.322,0.562,0.535,�k�k��,7.4,�L
2023/05/07,12:20,0.541,0.786,0.484,0.983,0.696,0.320,0.562,0.538,�k�k��,8.1,�L
2023/05/07,12:30,0.542,0.785,0.484,0.984,0.697,0.322,0.561,0.536,�k�k��,8.4,�L
2023/05/07,12:40,0.541,0.785,0.483,0.982,0.695,0.321,0.561,0.537,�k,7.3,�L
2023/05/07,12:50,0.544,0.785,0.485,0.983,0.696,0.321,0.560,0.536,�k,7.4,�L
2023/05/07,13:00,0.542,0.786,0.483,0.981,0.696,0.321,0.561,0.538,�k,6.9,�L
2023/05/07,13:10,0.542,0.786,0.483,0.982,0.696,0.319,0.561,0.536,�k,8.9,�L
2023/05/07,13:20,0.542,0.786,0.484,0.981,0.695,0.319,0.562,0.535,�k,8.3,�L
2023/05/07,13:30,0.540,0.785,0.483,0.982,0.696,0.320,0.561,0.533,�k,7.4,�L
2023/05/07,13:40,0.540,0.783,0.483,0.984,0.696,0.319,0.560,0.536,�k,7.0,�L
2023/05/07,13:50,0.541,0.785,0.485,0.981,0.695,0.320,0.561,0.536,�k�k��,9.0,�L
2023/05/07,14:00,0.542,0.781,0.484,0.982,0.697,0.321,0.562,0.537,�k,7.7,�L
2023/05/07,14:10,0.539,0.782,0.482,0.982,0.697,0.319,0.560,0.538,�k,8.1,�L
2023/05/07,14:20,0.541,0.784,0.484,0.981,0.695,0.320,0.560,0.535,�k,8.5,�L
2023/05/07,14:30,0.540,0.782,0.481,0.981,0.693,0.319,0.560,0.535,�k,8.5,�L
2023/05/07,14:40,0.540,0.781,0.482,0.978,0.692,0.320,0.559,0.534,�k�k��,8.3,�L
2023/05/07,14:50,0.539,0.780,0.483,0.975,0.689,0.321,0.558,0.536,�k,8.6,�L
2023/05/07,15:00,0.540,0.779,0.482,0.973,0.690,0.320,0.560,0.534,�k,7.4,�L
2023/05/07,15:10,0.538,0.777,0.482,0.974,0.688,0.321,0.560,0.533,�k,10.2,�L
2023/05/07,15:20,0.538,0.778,0.482,0.971,0.686,0.321,0.559,0.533,�k,5.6,�L
2023/05/07,15:30,0.538,0.777,0.482,0.969,0.682,0.321,0.560,0.532,�k,6.7,�L
2023/05/07,15:40,0.537,0.773,0.482,0.971,0.685,0.322,0.559,0.532,�k,7.7,�L
2023/05/07,15:50,0.538,0.776,0.482,0.967,0.683,0.322,0.559,0.533,�k,6.5,�L
2023/05/07,16:00,0.538,0.776,0.484,0.968,0.682,0.321,0.558,0.532,�k�k��,7.1,�L
2023/05/07,16:10,0.538,0.776,0.483,0.967,0.684,0.321,0.559,0.533,�k,7.7,�L
2023/05/07,16:20,0.538,0.775,0.483,0.967,0.682,0.322,0.559,0.532,�k,7.6,�L
2023/05/07,16:30,0.538,0.775,0.483,0.967,0.683,0.321,0.558,0.534,�k,6.5,�L
2023/05/07,16:40,0.537,0.774,0.484,0.965,0.682,0.323,0.557,0.532,�k�k��,8.0,�L
2023/05/07,16:50,0.538,0.773,0.483,0.962,0.682,0.323,0.558,0.533,�k,7.5,�L
2023/05/07,17:00,0.536,0.773,0.482,0.965,0.681,0.320,0.557,0.532,�k�k��,9.0,�L
2023/05/07,17:10,0.538,0.774,0.483,0.964,0.679,0.321,0.557,0.532,�k,8.2,�L
2023/05/07,17:20,0.539,0.772,0.482,0.964,0.681,0.321,0.557,0.530,�k,8.7,�L
2023/05/07,17:30,0.537,0.774,0.483,0.963,0.680,0.321,0.557,0.532,�k,8.0,�L
2023/05/07,17:40,0.537,0.774,0.481,0.963,0.679,0.319,0.556,0.531,�k,7.7,�L
2023/05/07,17:50,0.535,0.770,0.479,0.961,0.676,0.321,0.556,0.531,�k�k��,7.9,�L
2023/05/07,18:00,0.535,0.770,0.481,0.958,0.676,0.320,0.555,0.531,�k,7.8,�L
2023/05/07,18:10,0.535,0.772,0.479,0.959,0.676,0.320,0.555,0.530,�k�k��,9.2,�L
2023/05/07,18:20,0.535,0.770,0.481,0.960,0.676,0.320,0.556,0.530,�k,8.9,�L
2023/05/07,18:30,0.534,0.770,0.479,0.961,0.673,0.320,0.556,0.531,�k,7.6,�L
2023/05/07,18:40,0.535,0.768,0.480,0.958,0.672,0.320,0.555,0.531,�k,9.0,�L
2023/05/07,18:50,0.533,0.767,0.479,0.957,0.672,0.319,0.554,0.529,�k,7.7,�L
2023/05/07,19:00,0.531,0.765,0.478,0.955,0.667,0.318,0.554,0.529,�k�k��,10.3,�L
2023/05/07,19:10,0.531,0.764,0.478,0.953,0.668,0.318,0.554,0.529,�k,7.2,�L
2023/05/07,19:20,0.532,0.766,0.477,0.953,0.667,0.317,0.552,0.528,�k,10.5,�L
2023/05/07,19:30,0.531,0.763,0.478,0.952,0.665,0.317,0.554,0.528,�k,6.4,�L
2023/05/07,19:40,0.530,0.764,0.477,0.951,0.665,0.316,0.553,0.527,�k�k��,8.6,�L
2023/05/07,19:50,0.530,0.763,0.477,0.951,0.665,0.315,0.553,0.529,�k�k��,9.3,�L
2023/05/07,20:00,0.532,0.765,0.476,0.953,0.665,0.317,0.554,0.529,�k�k��,9.4,�L
2023/05/07,20:10,0.530,0.764,0.476,0.953,0.665,0.316,0.552,0.531,�k,8.4,�L
2023/05/07,20:20,0.530,0.762,0.475,0.952,0.663,0.316,0.550,0.529,�k,9.7,�L
2023/05/07,20:30,0.529,0.761,0.474,0.950,0.662,0.316,0.550,0.528,�k,8.4,�L
2023/05/07,20:40,0.528,0.760,0.473,0.948,0.662,0.315,0.550,0.529,�k,9.1,�L
2023/05/07,20:50,0.527,0.762,0.475,0.950,0.661,0.316,0.553,0.527,�k�k��,9.9,�L
2023/05/07,21:00,0.528,0.763,0.474,0.951,0.663,0.315,0.551,0.528,�k�k��,10.6,�L
2023/05/07,21:10,0.528,0.762,0.473,0.950,0.661,0.315,0.551,0.528,�k,9.1,�L
2023/05/07,21:20,0.527,0.761,0.473,0.948,0.660,0.315,0.551,0.529,�k,7.7,�L
2023/05/07,21:30,0.528,0.761,0.472,0.948,0.661,0.314,0.551,0.529,�k,8.2,�L
2023/05/07,21:40,0.528,0.760,0.472,0.948,0.657,0.314,0.551,0.527,�k,8.4,�L
2023/05/07,21:50,0.526,0.760,0.472,0.947,0.659,0.314,0.551,0.529,�k,9.1,�L
2023/05/07,22:00,0.525,0.757,0.471,0.945,0.656,0.313,0.550,0.526,�k,8.7,�L
2023/05/07,22:10,0.525,0.756,0.472,0.943,0.654,0.313,0.550,0.526,�k,7.1,�L
2023/05/07,22:20,0.524,0.755,0.468,0.943,0.654,0.313,0.551,0.526,�k,6.0,�L
2023/05/07,22:30,0.520,0.754,0.468,0.941,0.651,0.312,0.548,0.526,�k�k��,7.8,�L
2023/05/07,22:40,0.524,0.755,0.469,0.942,0.652,0.312,0.548,0.526,�k,8.5,�L
2023/05/07,22:50,0.523,0.758,0.471,0.943,0.653,0.312,0.549,0.528,�k�k��,8.6,�L
2023/05/07,23:00,0.524,0.757,0.469,0.944,0.655,0.312,0.550,0.526,�k�k��,9.0,�L
2023/05/07,23:10,0.526,0.756,0.471,0.945,0.656,0.313,0.550,0.527,�k�k��,8.0,�L
2023/05/07,23:20,0.523,0.755,0.471,0.945,0.652,0.313,0.550,0.527,�k�k��,9.5,�L
2023/05/07,23:30,0.523,0.756,0.470,0.941,0.650,0.312,0.549,0.526,�k�k��,8.9,�L
2023/05/07,23:40,0.521,0.755,0.468,0.944,0.649,0.312,0.548,0.526,�k�k��,9.4,�L
2023/05/07,23:50,0.521,0.755,0.469,0.940,0.649,0.313,0.549,0.526,�k�k��,9.1,�L
